| time (UTC) | temp F | wind direction | speed MPH | gust MPH | rain 1hr in | rain 24hr in | rain mn in | humidity % | barometer mb |
| 20260504050404 | 35 | 342 | 0.0 | 1.0 | 0.00 | 0.05 | 0.00 | 96 | 1014.8 |
| 20260504045404 | 35 | 342 | 1.0 | 3.0 | 0.00 | 0.05 | 0.00 | 95 | 1014.8 |
| 20260504044904 | 35 | 342 | 0.0 | 0.0 | 0.00 | 0.05 | 0.00 | 96 | 1014.8 |
| 20260504044406 | 35 | 342 | 0.0 | 0.0 | 0.00 | 0.05 | 0.00 | 95 | 1014.9 |
| 20260504043904 | 35 | 342 | 0.0 | 0.0 | 0.00 | 0.05 | 0.00 | 95 | 1014.8 |
| 20260504043405 | 35 | 342 | 0.0 | 0.0 | 0.00 | 0.05 | 0.00 | 96 | 1014.7 |
| 20260504042904 | 36 | 342 | 0.0 | 0.0 | 0.00 | 0.05 | 0.00 | 95 | 1014.6 |
| 20260504042406 | 36 | 342 | 0.0 | 1.0 | 0.00 | 0.05 | 0.00 | 95 | 1014.7 |
| 20260504041904 | 36 | 342 | 0.0 | 1.0 | 0.00 | 0.05 | 0.00 | 95 | 1014.7 |
| 20260504041405 | 36 | 342 | 0.0 | 0.0 | 0.00 | 0.05 | 0.00 | 95 | 1014.7 |
| 20260504040405 | 36 | 342 | 0.0 | 1.0 | 0.00 | 0.05 | 0.00 | 95 | 1014.6 |
| 20260504035906 | 36 | 342 | 0.0 | 0.0 | 0.00 | 0.05 | 0.00 | 96 | 1014.7 |
| 20260504035408 | 36 | 342 | 0.0 | 0.0 | 0.00 | 0.05 | 0.00 | 96 | 1014.7 |
| 20260504034905 | 36 | 342 | 0.0 | 2.0 | 0.00 | 0.05 | 0.00 | 96 | 1014.7 |
| 20260504034405 | 35 | 342 | 0.0 | 0.0 | 0.00 | 0.05 | 0.00 | 95 | 1014.7 |
| 20260504033905 | 35 | 342 | 0.0 | 1.0 | 0.00 | 0.05 | 0.00 | 95 | 1014.7 |
| 20260504033405 | 36 | 342 | 0.0 | 1.0 | 0.00 | 0.05 | 0.00 | 95 | 1014.6 |
| 20260504032905 | 36 | 342 | 0.0 | 2.0 | 0.00 | 0.05 | 0.00 | 95 | 1014.6 |
| 20260504031904 | 36 | 342 | 0.0 | 0.0 | 0.00 | 0.05 | 0.00 | 95 | 1014.6 |
| 20260504031406 | 36 | 342 | 0.0 | 0.0 | 0.00 | 0.05 | 0.00 | 95 | 1014.6 |
| 20260504030905 | 37 | 342 | 0.0 | 0.0 | 0.00 | 0.05 | 0.00 | 95 | 1014.6 |
| 20260504030405 | 37 | 342 | 0.0 | 0.0 | 0.00 | 0.05 | 0.00 | 95 | 1014.6 |
| 20260504025905 | 37 | 342 | 0.0 | 0.0 | 0.00 | 0.05 | 0.00 | 95 | 1014.6 |
| 20260504025405 | 37 | 342 | 0.0 | 0.0 | 0.00 | 0.05 | 0.00 | 95 | 1014.6 |
| 20260504024906 | 37 | 342 | 0.0 | 0.0 | 0.00 | 0.05 | 0.00 | 95 | 1014.7 |
| 20260504024406 | 37 | 342 | 0.0 | 0.0 | 0.00 | 0.05 | 0.00 | 95 | 1014.6 |
| 20260504023906 | 37 | 342 | 0.0 | 0.0 | 0.00 | 0.05 | 0.00 | 95 | 1014.5 |
| 20260504023406 | 37 | 342 | 0.0 | 0.0 | 0.00 | 0.05 | 0.00 | 96 | 1014.5 |
| 20260504022905 | 38 | 342 | 0.0 | 0.0 | 0.00 | 0.05 | 0.00 | 96 | 1014.4 |
| 20260504022405 | 38 | 342 | 0.0 | 0.0 | 0.00 | 0.05 | 0.00 | 95 | 1014.4 |
| 20260504021905 | 38 | 342 | 0.0 | 0.0 | 0.00 | 0.05 | 0.00 | 95 | 1014.4 |
| 20260504021404 | 38 | 342 | 0.0 | 0.0 | 0.00 | 0.05 | 0.00 | 95 | 1014.3 |
| 20260504020905 | 38 | 342 | 0.0 | 0.0 | 0.00 | 0.05 | 0.00 | 96 | 1014.3 |
| 20260504020406 | 38 | 342 | 0.0 | 0.0 | 0.00 | 0.05 | 0.00 | 96 | 1014.3 |
| 20260504015905 | 38 | 342 | 0.0 | 0.0 | 0.00 | 0.05 | 0.00 | 96 | 1014.3 |
| 20260504015404 | 38 | 342 | 0.0 | 0.0 | 0.00 | 0.05 | 0.00 | 95 | 1014.3 |
| 20260504014905 | 39 | 342 | 0.0 | 0.0 | 0.00 | 0.05 | 0.00 | 95 | 1014.4 |
| 20260504013906 | 39 | 342 | 0.0 | 0.0 | 0.00 | 0.05 | 0.00 | 95 | 1014.4 |
| 20260504013405 | 39 | 342 | 0.0 | 0.0 | 0.00 | 0.05 | 0.00 | 95 | 1014.4 |
| 20260504012905 | 39 | 342 | 0.0 | 0.0 | 0.00 | 0.05 | 0.00 | 95 | 1014.3 |
| 20260504012405 | 39 | 342 | 0.0 | 0.0 | 0.00 | 0.05 | 0.00 | 96 | 1014.2 |
| 20260504011905 | 40 | 342 | 0.0 | 0.0 | 0.00 | 0.05 | 0.00 | 96 | 1014.2 |
| 20260504010906 | 40 | 342 | 0.0 | 0.0 | 0.00 | 0.05 | 0.00 | 96 | 1014.2 |
| 20260504010405 | 40 | 342 | 0.0 | 0.0 | 0.00 | 0.05 | 0.00 | 96 | 1014.2 |
| 20260504005904 | 40 | 342 | 0.0 | 0.0 | 0.00 | 0.05 | 0.00 | 96 | 1014.1 |
| 20260504005405 | 40 | 342 | 0.0 | 0.0 | 0.00 | 0.05 | 0.00 | 96 | 1014.2 |
| 20260504004905 | 40 | 342 | 0.0 | 0.0 | 0.00 | 0.05 | 0.00 | 96 | 1014.2 |
| 20260504003905 | 41 | 342 | 0.0 | 0.0 | 0.00 | 0.05 | 0.00 | 96 | 1014.0 |
| 20260504003404 | 41 | 342 | 0.0 | 0.0 | 0.00 | 0.05 | 0.00 | 96 | 1014.1 |
| 20260504002405 | 41 | 342 | 0.0 | 0.0 | 0.00 | 0.05 | 0.00 | 96 | 1014.1 |
| 20260504001905 | 41 | 342 | 0.0 | 0.0 | 0.00 | 0.05 | 0.00 | 96 | 1014.2 |
| 20260504001405 | 41 | 342 | 0.0 | 0.0 | 0.00 | 0.05 | 0.00 | 96 | 1014.1 |
| 20260504000408 | 41 | 342 | 0.0 | 0.0 | 0.00 | 0.05 | 0.00 | 96 | 1014.0 |
| 20260503235904 | 41 | 342 | 0.0 | 0.0 | 0.00 | 0.05 | 0.00 | 96 | 1014.0 |
| 20260503235404 | 41 | 342 | 0.0 | 0.0 | 0.00 | 0.05 | 0.00 | 96 | 1013.9 |
| 20260503234905 | 42 | 342 | 0.0 | 0.0 | 0.00 | 0.05 | 0.00 | 96 | 1013.8 |
| 20260503234406 | 42 | 342 | 0.0 | 0.0 | 0.00 | 0.05 | 0.00 | 96 | 1013.7 |
| 20260503233905 | 41 | 342 | 0.0 | 0.0 | 0.00 | 0.05 | 0.00 | 96 | 1013.9 |
| 20260503233405 | 41 | 342 | 0.0 | 0.0 | 0.00 | 0.05 | 0.00 | 96 | 1013.8 |
| 20260503232904 | 42 | 342 | 0.0 | 0.0 | 0.00 | 0.05 | 0.00 | 96 | 1013.8 |
| 20260503232405 | 41 | 342 | 0.0 | 0.0 | 0.00 | 0.05 | 0.00 | 96 | 1013.7 |
| 20260503231906 | 41 | 342 | 0.0 | 0.0 | 0.00 | 0.05 | 0.00 | 96 | 1013.6 |
| 20260503230905 | 41 | 342 | 0.0 | 0.0 | 0.00 | 0.05 | 0.00 | 95 | 1013.7 |
| 20260503230406 | 42 | 342 | 0.0 | 0.0 | 0.00 | 0.05 | 0.00 | 96 | 1013.6 |
| 20260503225905 | 42 | 342 | 0.0 | 0.0 | 0.00 | 0.05 | 0.05 | 96 | 1013.7 |
| 20260503225403 | 42 | 342 | 0.0 | 0.0 | 0.00 | 0.05 | 0.05 | 96 | 1013.8 |
| 20260503224903 | 42 | 342 | 0.0 | 0.0 | 0.00 | 0.05 | 0.05 | 96 | 1013.7 |
| 20260503224404 | 42 | 342 | 0.0 | 0.0 | 0.00 | 0.05 | 0.05 | 95 | 1013.7 |
| 20260503223403 | 42 | 342 | 0.0 | 0.0 | 0.00 | 0.05 | 0.05 | 96 | 1013.6 |
| 20260503222403 | 42 | 342 | 0.0 | 0.0 | 0.00 | 0.05 | 0.05 | 95 | 1013.6 |
| 20260503221903 | 42 | 342 | 0.0 | 0.0 | 0.00 | 0.05 | 0.05 | 95 | 1013.6 |
| 20260503221403 | 42 | 342 | 0.0 | 0.0 | 0.00 | 0.06 | 0.05 | 95 | 1013.6 |
| 20260503220904 | 42 | 342 | 0.0 | 0.0 | 0.00 | 0.06 | 0.05 | 95 | 1013.7 |
| 20260503220403 | 43 | 342 | 0.0 | 0.0 | 0.00 | 0.06 | 0.05 | 95 | 1013.6 |
| 20260503215903 | 43 | 342 | 0.0 | 0.0 | 0.00 | 0.06 | 0.05 | 95 | 1013.6 |
| 20260503214903 | 43 | 342 | 0.0 | 0.0 | 0.00 | 0.09 | 0.05 | 95 | 1013.6 |
| 20260503214404 | 44 | 342 | 0.0 | 0.0 | 0.00 | 0.09 | 0.05 | 95 | 1013.4 |
| 20260503213403 | 43 | 342 | 0.0 | 0.0 | 0.00 | 0.09 | 0.05 | 95 | 1013.4 |
| 20260503212903 | 43 | 342 | 0.0 | 0.0 | 0.00 | 0.09 | 0.05 | 95 | 1013.4 |
| 20260503212404 | 43 | 342 | 0.0 | 0.0 | 0.00 | 0.09 | 0.05 | 95 | 1013.4 |
| 20260503211903 | 44 | 342 | 0.0 | 0.0 | 0.00 | 0.09 | 0.05 | 95 | 1013.5 |
| 20260503211404 | 44 | 342 | 0.0 | 0.0 | 0.00 | 0.09 | 0.05 | 95 | 1013.4 |
| 20260503210903 | 44 | 342 | 0.0 | 0.0 | 0.00 | 0.09 | 0.05 | 95 | 1013.5 |
| 20260503210404 | 44 | 342 | 0.0 | 0.0 | 0.00 | 0.09 | 0.05 | 95 | 1013.4 |
| 20260503205904 | 44 | 342 | 0.0 | 0.0 | 0.00 | 0.09 | 0.05 | 95 | 1013.4 |
| 20260503205404 | 44 | 342 | 0.0 | 0.0 | 0.00 | 0.09 | 0.05 | 95 | 1013.3 |
| 20260503204904 | 45 | 342 | 0.0 | 0.0 | 0.00 | 0.09 | 0.05 | 94 | 1013.2 |
| 20260503204403 | 45 | 342 | 0.0 | 1.0 | 0.00 | 0.09 | 0.05 | 94 | 1013.1 |
| 20260503203903 | 45 | 342 | 0.0 | 0.0 | 0.00 | 0.09 | 0.05 | 94 | 1013.0 |
| 20260503203404 | 46 | 342 | 0.0 | 1.0 | 0.00 | 0.09 | 0.05 | 94 | 1013.0 |
| 20260503202904 | 46 | 342 | 0.0 | 0.0 | 0.00 | 0.09 | 0.05 | 94 | 1013.0 |
| 20260503201904 | 47 | 342 | 0.0 | 0.0 | 0.00 | 0.09 | 0.05 | 94 | 1013.0 |
| 20260503201403 | 47 | 342 | 0.0 | 0.0 | 0.00 | 0.09 | 0.05 | 94 | 1013.0 |
| 20260503200903 | 48 | 342 | 0.0 | 0.0 | 0.00 | 0.09 | 0.05 | 94 | 1012.9 |
| 20260503195903 | 49 | 342 | 0.0 | 1.0 | 0.00 | 0.09 | 0.05 | 94 | 1012.9 |
| 20260503195403 | 50 | 342 | 0.0 | 1.0 | 0.00 | 0.09 | 0.05 | 95 | 1012.9 |
| 20260503194904 | 50 | 342 | 0.0 | 0.0 | 0.00 | 0.09 | 0.05 | 94 | 1012.9 |
| 20260503194404 | 51 | 342 | 0.0 | 0.0 | 0.00 | 0.09 | 0.05 | 94 | 1012.9 |
| 20260503192904 | 52 | 342 | 0.0 | 0.0 | 0.00 | 0.09 | 0.05 | 94 | 1012.7 |
| 20260503192404 | 52 | 342 | 0.0 | 0.0 | 0.00 | 0.09 | 0.05 | 94 | 1012.8 |
| 20260503191403 | 52 | 342 | 0.0 | 0.0 | 0.00 | 0.09 | 0.05 | 93 | 1012.8 |
| 20260503190903 | 53 | 342 | 0.0 | 0.0 | 0.00 | 0.09 | 0.05 | 92 | 1012.7 |
| 20260503190405 | 53 | 342 | 0.0 | 0.0 | 0.00 | 0.09 | 0.05 | 91 | 1012.6 |
| 20260503185904 | 53 | 340 | 0.0 | 0.0 | 0.00 | 0.09 | 0.05 | 90 | 1012.5 |
| 20260503185404 | 53 | 340 | 0.0 | 1.0 | 0.00 | 0.09 | 0.05 | 90 | 1012.5 |
| 20260503184403 | 54 | 340 | 0.0 | 0.0 | 0.00 | 0.09 | 0.05 | 88 | 1012.4 |
| 20260503183403 | 55 | 340 | 0.0 | 0.0 | 0.00 | 0.09 | 0.05 | 89 | 1012.3 |
| 20260503182403 | 55 | 340 | 0.0 | 1.0 | 0.00 | 0.09 | 0.05 | 87 | 1012.2 |
| 20260503181904 | 55 | 340 | 0.0 | 2.0 | 0.00 | 0.09 | 0.05 | 88 | 1012.2 |
| 20260503181404 | 56 | 340 | 0.0 | 0.0 | 0.00 | 0.09 | 0.05 | 91 | 1012.1 |
| 20260503180903 | 56 | 340 | 0.0 | 0.0 | 0.00 | 0.09 | 0.05 | 88 | 1012.1 |
| 20260503180403 | 55 | 340 | 0.0 | 2.0 | 0.00 | 0.09 | 0.05 | 92 | 1012.2 |
| 20260503175904 | 54 | 340 | 0.0 | 0.0 | 0.00 | 0.09 | 0.05 | 94 | 1012.2 |
| 20260503175404 | 53 | 340 | 0.0 | 0.0 | 0.00 | 0.09 | 0.05 | 93 | 1012.2 |
| 20260503174905 | 53 | 340 | 0.0 | 0.0 | 0.00 | 0.09 | 0.05 | 93 | 1012.3 |
| 20260503174404 | 53 | 340 | 0.0 | 0.0 | 0.00 | 0.09 | 0.05 | 93 | 1012.4 |
| 20260503173904 | 53 | 340 | 0.0 | 0.0 | 0.00 | 0.09 | 0.05 | 93 | 1012.4 |
| 20260503173403 | 53 | 340 | 0.0 | 0.0 | 0.01 | 0.09 | 0.05 | 93 | 1012.5 |
| 20260503172903 | 53 | 340 | 0.0 | 0.0 | 0.01 | 0.09 | 0.05 | 93 | 1012.3 |
| 20260503171403 | 53 | 340 | 0.0 | 2.0 | 0.01 | 0.09 | 0.05 | 93 | 1012.3 |
| 20260503170904 | 52 | 340 | 0.0 | 0.0 | 0.01 | 0.09 | 0.05 | 94 | 1012.4 |
| 20260503170405 | 53 | 340 | 0.0 | 3.0 | 0.02 | 0.09 | 0.05 | 94 | 1012.4 |
| 20260503150903 | 54 | 342 | 1.0 | 3.0 | 0.00 | 0.05 | 0.00 | 85 | 1012.6 |
| 20260503131404 | 57 | 342 | 1.0 | 5.0 | 0.00 | 0.05 | 0.00 | 75 | 1012.9 |
| 20260503130904 | 57 | 341 | 3.0 | 6.0 | 0.00 | 0.05 | 0.00 | 74 | 1013.0 |
| 20260503130404 | 58 | 340 | 2.0 | 5.0 | 0.00 | 0.05 | 0.00 | 73 | 1013.0 |
| 20260503110405 | 53 | 13 | 2.0 | 5.0 | 0.00 | 0.05 | 0.00 | 83 | 1013.5 |
| 20260503090403 | 51 | 298 | 2.0 | 3.0 | 0.00 | 0.05 | 0.00 | 90 | 1013.4 |
| 20260503081404 | 49 | 17 | 2.0 | 8.0 | 0.00 | 0.05 | 0.00 | 91 | 1013.5 |
| 20260503080905 | 49 | 14 | 2.0 | 8.0 | 0.00 | 0.05 | 0.00 | 91 | 1013.5 |
| 20260503080403 | 49 | 14 | 4.0 | 8.0 | 0.00 | 0.05 | 0.00 | 92 | 1013.5 |
| 20260503072403 | 48 | 17 | 1.0 | 5.0 | 0.00 | 0.05 | 0.00 | 92 | 1013.4 |
| 20260503071404 | 48 | 17 | 0.0 | 2.0 | 0.00 | 0.05 | 0.00 | 92 | 1013.4 |
| 20260503070905 | 48 | 17 | 1.0 | 3.0 | 0.00 | 0.05 | 0.00 | 93 | 1013.4 |